Torna al catalogo

STARLINK-32408

AttivoComunicazioniVLEO
NORAD 62054·PAYLOAD·🇺🇸 United States

Lanciato Nov 21, 2024 da Cape Canaveral Space Force Station

Loading…

Prossimi Passaggi (prossime 24 ore)

TLE

AggiornatoSource: CelesTrak SupGP

Epoca: Sep 14, 2026, 22:27 UTC

1 62054C 24216Y   26257.93590278  .00028150  00000+0  10193-2 0  2575
2 62054  43.0001 267.5757 0001567 268.6972 255.7363 15.27574621    17

Traccia STARLINK-32408 in tempo reale con AllMySat

Download on the App Store